WB5OMR-9 Weather Reports


Display with metric or nautical units.
time (UTC)temp
F
wind
direction
speed
MPH
gust
MPH
rain 1hr
in
rain 24hr
in
rain mn
in
humidity
%
barometer
mb
20260502152101 67 0.0 0.0 0.00 0.37 0.00 65 1021.3
20260502151018 66 0.0 0.0 0.00 0.37 0.00 67 1021.3
20260502122825 51 0.0 0.0 0.00 0.37 0.00 89 1019.0
20260502121742 51 0.0 0.0 0.00 0.41 0.00 89 1019.0
20260502120741 51 0.0 0.0 0.00 0.47 0.00 89 1018.6
20260502115739 51 0.0 0.0 0.00 0.47 0.00 89 1018.6
20260502114738 51 0.0 0.0 0.00 0.47 0.00 89 1018.6
20260502113737 51 0.0 0.0 0.00 0.47 0.00 89 1018.3
20260502112736 51 0.0 0.0 0.00 0.47 0.00 89 1018.3
20260502111653 51 0.0 0.0 0.00 0.47 0.00 89 1018.3
20260502110651 51 0.0 0.0 0.00 0.47 0.00 89 1018.3
20260502105650 51 0.0 0.0 0.00 0.47 0.00 89 1018.3
20260502104649 51 0.0 0.0 0.00 0.47 0.00 89 1018.3
20260502103648 51 0.0 0.0 0.00 0.49 0.00 89 1018.3
20260502102647 51 0.0 0.0 0.00 0.55 0.00 89 1018.3
20260502101604 51 0.0 0.0 0.00 0.61 0.00 89 1018.3
20260502100552 51 0.0 0.0 0.00 0.86 0.00 89 1018.3
20260502090545 51 0.0 0.0 0.00 1.26 0.00 88 1017.6
20260502071358 53 0.0 0.0 0.00 1.81 0.00 86 1017.3
20260502070315 53 0.0 0.0 0.00 1.81 0.00 85 1016.9
20260502065232 54 0.0 0.0 0.00 1.84 0.00 84 1017.3
20260502064231 54 0.0 0.0 0.00 1.84 0.00 84 1017.3
20260502063230 54 0.0 0.0 0.00 1.84 0.00 84 1017.3
20260502062229 55 0.0 0.0 0.00 1.84 0.00 84 1017.3
20260502061228 55 0.0 0.0 0.00 1.84 0.00 83 1016.9
20260502060226 55 0.0 0.0 0.00 1.84 0.00 83 1016.9
20260502055225 55 0.0 0.0 0.00 1.84 0.00 82 1016.9
20260502054142 56 0.0 0.0 0.00 1.86 0.00 82 1017.3
20260502053140 56 0.0 0.0 0.00 1.88 0.00 82 1017.3
20260502052139 56 0.0 0.0 0.00 1.98 0.00 82 1017.3
20260502051138 56 0.0 0.0 0.00 2.06 0.00 82 1017.3
20260502050137 56 0.0 0.0 0.00 2.08 0.00 82 1017.3
20260502045136 56 0.0 0.0 0.00 2.08 2.08 82 1016.6
20260502044135 57 0.0 0.0 0.00 2.08 2.08 81 1016.6
20260502043134 57 0.0 0.0 0.00 2.08 2.08 81 1016.6
20260502042133 57 0.0 0.0 0.00 2.08 2.08 80 1015.9
20260502041132 57 0.0 0.0 0.00 2.08 2.08 80 1016.6
20260502040130 57 0.0 0.0 0.00 2.08 2.08 80 1016.6
20260502035129 58 0.0 0.0 0.00 2.08 2.08 80 1016.6
20260502034128 58 0.0 0.0 0.00 2.08 2.08 80 1016.3
20260502033127 58 0.0 0.0 0.00 2.08 2.08 80 1016.3
20260502032121 59 0.0 0.0 0.00 2.08 2.08 81 1016.6
20260502031120 59 0.0 0.0 0.00 2.08 2.08 80 1016.3
20260502030112 60 0.0 0.0 0.00 2.08 2.08 80 1015.9
20260502025111 60 0.0 0.0 0.00 2.08 2.08 80 1015.9
20260502024110 60 0.0 0.0 0.00 2.08 2.08 80 1015.9
20260502023109 60 0.0 0.0 0.00 2.08 2.08 80 1015.6
20260502022108 60 0.0 0.0 0.00 2.08 2.08 80 1015.6
20260502021106 60 0.0 0.0 0.00 2.08 2.08 80 1015.2
20260502020105 61 0.0 0.0 0.00 2.08 2.08 80 1014.9
20260502015104 61 0.0 0.0 0.00 2.08 2.08 80 1014.9
20260502014103 61 0.0 0.0 0.00 2.08 2.08 79 1014.6
20260502013102 61 0.0 0.0 0.00 2.08 2.08 79 1014.6
20260502012101 62 0.0 0.0 0.00 2.08 2.08 79 1014.2
20260502011059 62 0.0 0.0 0.00 2.08 2.08 79 1014.2
20260502010058 62 0.0 0.0 0.00 2.08 2.08 79 1013.9
20260502005057 63 0.0 0.0 0.00 2.08 2.08 78 1013.5
20260502004014 63 0.0 0.0 0.00 2.08 2.08 78 1013.2
20260502003012 64 0.0 0.0 0.00 2.08 2.08 78 1013.2
20260502002011 64 0.0 0.0 0.00 2.08 2.08 78 1012.9
20260502001010 64 0.0 0.0 0.00 2.08 2.08 78 1012.5
20260502000009 65 0.0 0.0 0.00 2.08 2.08 77 1012.5
20260501235008 65 0.0 0.0 0.00 2.08 2.08 77 1012.5
20260501233925 66 0.0 0.0 0.00 2.08 2.08 77 1012.2
20260501232841 66 0.0 0.0 0.00 2.08 2.08 76 1012.2
20260501231758 67 0.0 0.0 0.00 2.08 2.08 75 1011.9
20260501230715 68 0.0 0.0 0.00 2.08 2.08 76 1011.9
20260501225714 68 0.0 0.0 0.00 2.08 2.08 76 1011.5
20260501224713 68 0.0 0.0 0.00 2.08 2.08 76 1011.2
20260501223712 68 0.0 0.0 0.00 2.08 2.08 78 1011.2
20260501222710 68 0.0 0.0 0.00 2.08 2.08 78 1011.2
20260501221709 68 0.0 0.0 0.00 2.08 2.08 78 1011.2
20260501220708 68 0.0 0.0 0.00 2.08 2.08 79 1010.8
20260501215706 68 0.0 0.0 0.00 2.08 2.08 79 1010.8
20260501214705 68 0.0 0.0 0.00 2.08 2.08 79 1011.2
20260501213704 68 0.0 0.0 0.00 2.08 2.08 79 1011.2
20260501212702 69 0.0 0.0 0.00 2.08 2.08 79 1011.2
20260501211701 69 0.0 0.0 0.00 2.08 2.08 79 1011.5
20260501210700 69 0.0 0.0 0.00 2.08 2.08 81 1010.8
20260501205659 69 0.0 0.0 0.00 2.08 2.08 80 1011.2
20260501204658 69 0.0 0.0 0.00 2.08 2.08 79 1011.2
20260501203657 69 0.0 0.0 0.02 2.08 2.08 81 1011.2
20260501202656 69 0.0 0.0 0.02 2.08 2.08 82 1011.2
20260501201655 69 0.0 0.0 0.02 2.08 2.08 82 1011.2
20260501200654 69 0.0 0.0 0.02 2.08 2.08 81 1011.2
20260501195652 70 0.0 0.0 0.02 2.08 2.08 81 1011.2
20260501194651 70 0.0 0.0 0.02 2.08 2.08 80 1010.8
20260501193650 71 0.0 0.0 0.00 2.06 2.06 78 1010.5
20260501192649 72 0.0 0.0 0.00 2.06 2.06 77 1010.8
20260501191647 73 0.0 0.0 0.00 2.06 2.06 77 1010.2
20260501190646 73 0.0 0.0 0.00 2.06 2.06 78 1009.8
20260501185645 73 0.0 0.0 0.00 2.06 2.06 78 1009.8
20260501184644 73 0.0 0.0 0.00 2.06 2.06 79 1009.8
20260501183643 74 0.0 0.0 0.00 2.06 2.06 80 1009.8
20260501182641 73 0.0 0.0 0.00 2.06 2.06 83 1010.2
20260501181640 71 0.0 0.0 0.00 2.06 2.06 85 1010.5
20260501180639 70 0.0 0.0 0.00 2.06 2.06 88 1011.2
20260501175638 67 0.0 0.0 0.00 2.06 2.06 88 1011.5
20260501174637 66 0.0 0.0 0.00 2.06 2.06 87 1011.5
20260501173636 66 0.0 0.0 0.04 2.06 2.06 87 1011.2
20260501172634 67 0.0 0.0 0.27 2.06 2.06 87 1011.2
20260501171633 68 0.0 0.0 0.35 2.06 2.06 87 1011.9
20260501170632 68 0.0 0.0 0.35 2.06 2.06 88 1011.5
20260501165631 67 0.0 0.0 0.35 2.06 2.06 89 1011.5
20260501164548 65 0.0 0.0 0.35 2.06 2.06 88 1011.5
20260501163505 64 0.0 0.0 0.23 1.94 1.94 87 1010.5
20260501162504 65 0.0 0.0 0.00 1.71 1.71 86 1011.5
20260501161503 65 0.0 0.0 0.00 1.71 1.71 86 1009.8
20260501160501 66 0.0 0.0 0.00 1.71 1.71 86 1008.8
20260501155500 66 0.0 0.0 0.00 1.71 1.71 86 1009.5